This demonstration page uses our WeatherBlox Daily Observations layout. Learn more.

Left ArrowRight Arrow

53.62937, 11.41316

Hourly Observations for November 13, 2021

Temp ( °F °C ) Dew Point ( °F °C ) Humidity (%) Winds ( mph kmh ) Pressure ( in mb ) Visibility ( mi km ) Precip ( " mm )
7:50 am 07:50 Mostly Cloudy with Light Rain 41 5 39 4 93 93 SSE 6 9 29.89 1012 2 4 N/A
8:20 am 08:20 Mostly Cloudy with Light Rain 41 5 39 4 93 93 SSE 6 9 29.89 1012 2 4 N/A
8:50 am 08:50 Mostly Cloudy with Mist and Fog 41 5 39 4 93 93 SSE 5 7 29.89 1012 2 3 N/A
9:20 am 09:20 Mostly Cloudy with Mist and Fog 41 5 39 4 93 93 SSE 5 7 29.89 1012 2 4 N/A
9:50 am 09:50 Mostly Cloudy 41 5 39 4 93 93 SSE 3 6 29.89 1012 3 5 N/A
10:20 am 10:20 Mostly Cloudy with Drizzle 41 5 39 4 93 93 SSE 5 7 29.92 1013 2 3 N/A
10:50 am 10:50 Mostly Cloudy with Light Rain 41 5 41 5 100 100 SSE 5 7 29.92 1013 2 3 N/A
11:20 am 11:20 Mostly Cloudy with Mist and Fog 43 6 41 5 93 93 SSE 6 9 29.92 1013 2 4 N/A
11:50 am 11:50 Mostly Cloudy 43 6 41 5 93 93 SSE 5 7 29.92 1013 3 5 N/A
12:20 pm 12:20 Mostly Cloudy 43 6 41 5 93 93 SSE 6 9 29.92 1013 3 5 N/A
12:50 pm 12:50 Mostly Cloudy with Mist and Fog 43 6 41 5 93 93 SSE 5 7 29.92 1013 3 5 N/A
1:20 pm 13:20 Mostly Cloudy 43 6 41 5 93 93 SSE 6 9 29.92 1013 30 48 N/A
1:50 pm 13:50 Cloudy 45 7 43 6 93 93 SE 3 6 29.92 1013 4 7 N/A
2:20 pm 14:20 Cloudy 45 7 41 5 87 87 SE 5 7 29.92 1013 5 8 N/A
2:50 pm 14:50 Cloudy 45 7 41 5 87 87 VRB 2 4 29.92 1013 5 8 N/A
3:50 pm 15:50 Cloudy 45 7 43 6 93 93 VRB 2 4 29.95 1014 5 8 N/A
4:20 pm 16:20 Cloudy 45 7 41 5 87 87 SE 3 6 29.95 1014 5 8 N/A
4:50 pm 16:50 Cloudy 45 7 41 5 87 87 VRB 1 2 29.95 1014 6 9 N/A
5:20 pm 17:20 Mostly Cloudy 45 7 43 6 93 93 VRB 1 2 29.97 1015 30 48 N/A
5:50 pm 17:50 Cloudy 45 7 43 6 93 93 VRB 2 4 29.97 1015 30 48 N/A
6:20 pm 18:20 Cloudy with Mist and Fog 45 7 43 6 93 93 VRB 1 2 29.97 1015 3 5 N/A
6:50 pm 18:50 Mostly Cloudy with Mist and Fog 45 7 43 6 93 93 VRB 1 2 30.00 1016 2 4 N/A
7:20 pm 19:20 Mostly Cloudy with Mist and Fog 45 7 43 6 93 93 VRB 2 4 30.00 1016 2 4 N/A
7:50 pm 19:50 Mostly Cloudy with Mist and Fog 45 7 43 6 93 93 VRB 1 2 30.00 1016 3 5 N/A
8:20 pm 20:20 Cloudy 45 7 43 6 93 93 NE 2 4 30.00 1016 3 5 N/A
8:50 pm 20:50 Mostly Cloudy 45 7 43 6 93 93 NNE 2 4 30.03 1017 3 5 N/A
9:20 pm 21:20 Cloudy 45 7 43 6 93 93 ENE 3 6 30.03 1017 3 5 N/A
9:50 pm 21:50 Mostly Cloudy 45 7 43 6 93 93 NNE 3 6 30.03 1017 3 5 N/A
10:20 pm 22:20 Cloudy 45 7 43 6 93 93 NNE 3 6 30.06 1018 3 5 N/A
10:50 pm 22:50 Cloudy 45 7 43 6 93 93 NE 3 6 30.06 1018 3 5 N/A
11:20 pm 23:20 Mostly Cloudy 45 7 43 6 93 93 NE 2 4 30.06 1018 3 5 N/A
11:50 pm 23:50 Mostly Cloudy 45 7 43 6 93 93 VRB 1 2 30.06 1018 3 5 N/A

Powered by AerisWeather